weather.gov     
National Weather Service

Other Surface Observations
NWS Homepage
This page is being discontinued on March 12, 2014.
The same data is available at this site. Please update your bookmarks.
Thank you, and we apologize for the inconvenience.
Please send an email to SR-SRH.Webmaster@noaa.gov with any concerns.


Current Version
Previous Version:    01  02  03  04  05  06  07  08  09  10  11  12  13  14  15  16  17  18  19  20  21  22  23  24  25  26  27  28  29  30  
   31  32  33  34  35  36  37  38  39  40  41  42  43  44  45  46  47  48  49  50  51  52  53  54  55  56  57  58  59  60  
[Printable]
976
SXUS52 KCHS 271325
OSOCHS

MARINE OBSERVATIONS
NATIONAL WEATHER SERVICE CHARLESTON SC
800 AM EST TUE JAN 27 2015

...DOWNTOWN CHARLESTON AND HARBOR...

CITY           SKY/WX    TMP DP  RH WIND       PRES   REMARKS
WATERFRONT PRK   N/A     37 N/A N/A W7G13       N/A  WCI  32
FORT JOHNSON   NOT AVBL

...LAKE MOULTRIE...

CITY           SKY/WX    TMP DP  RH WIND       PRES   REMARKS
PINOPOLIS      NOT AVBL

...LAKE AND SUPPLEMENTAL COASTAL OBSERVATIONS...

STATION/POSITION TIME  TEMP    WIND        PRES    WAVE   SWELL
                       AIR SEA DIR/SP/G            HT/PER HT/PER/DIR
                 (UTC) (F)     (DEG/KT/KT) (MB)    (FT/S) (FT/S/D)
FORT PULASKI     1300   40 52  290/ 15/ 18 1012.5R
SAPELO ISLAND    1300   39     280/  8     1013.0S
UPR LAKE MARION  NOT AVBL
WINYAH BAY       1300   36     290/  5     1009.0S
LAKE MURRAY      1200   35     280/  3/  7 1010.2R
ACE BASIN NERRS  NOT AVBL


...C-MAN AND BUOY OBSERVATIONS...

STATION/POSITION TIME  TEMP    WIND        PRES    WAVE   SWELL
                       AIR SEA DIR/SP/G            HT/PER HT/PER/DIR
                 (UTC) (F)     (DEG/KT/KT) (MB)    (FT/S) (FT/S/D)
BUOY 41004       1300   45 67  310/ 19/ 25 1009.6R   7/ 7   2/ 9
BUOY 41008       1300   44 54  290/ 19/ 23 1012.4R   4/ 4
FOLLY BEACH CMAN 1300   36     290/  7/ 10 1011.6R
CAPERS NS BUOY   1200   39     310/ 16/ 19   N/A
FRIPP NS BUOY    1200   42     320/ 16/ 19   N/A
5E ST. MARYS GA  1300      58                N/A     2/ 3


STATION/POSITION TIME  TEMP    WIND        PRES    WAVE   SWELL
                       AIR SEA DIR/SP/G            HT/PER HT/PER/DIR
                 (UTC) (F)     (DEG/KT/KT) (MB)    (FT/S) (FT/S/D)
FRYING PAN BUOY  1300   45 66  320/ 19/ 25 1007.8R   8/ 8
BUOY 41025       1300   41 69  330/ 21/ 27 1004.5R   7/10   5/ 30/10
CAPE LOOKOUT NC  1300   39     340/ 15/ 18 1006.5R
BUOY 41002       1151   57 72  310/ 21/ 27 1004.4R  13/10   7/250/10
BUOY 41010       1300   62 76  290/ 25/ 33 1012.3R  12/ 8
ST AUGUSTINE FL  1300   43     250/  6/  7 1015.9R

$$




U.S. Dept. of Commerce
NOAA National Weather Service
1325 East West Highway
Silver Spring, MD 20910
E-mail: w-nws.webmaster@noaa.gov
Page last modified: May 16, 2007
NATIONAL WEATHER SERVICE: for Safety, for Work, for Fun - FOR LIFE